sat.trackr.live / text

‹ back to catalog

STARLINK-1807

NORAD 46706 · 2020-073AN

PAYLOAD ACTIVE UNKNOWN

§ Identity

Operator
Country
US
Launch date
2020-10-18
Launch site
AFETR
Launch vehicle
Mass (kg)
RCS (m²)

Purposes: comms

External: N2YO · Heavens-Above · Gunter

§ Orbital elements

Epoch: 2026-09-20T00:08:15.122976Z

Period
93.59 min
Inclination
53.0537°
Eccentricity
0.0002407
Mean motion
15.38707321 rev/d
Perigee alt
448.3 km
Apogee alt
451.6 km
Semi-major
6,828.1 km
B*
1.1544e-3
RAAN
42.0346°
Arg perigee
15.1942°
Mean anomaly
344.9132°
Rev number
32,709

§ Raw data

STARLINK-18071 46706U 20073AN  26263.00573059  .00044687  00000+0  11544-2 0  99982 46706  53.0537  42.0346 0002407  15.1942 344.9132 15.38707321327096

JSON: /api/v1/satellites/46706 · /tle

For live sub-satellite position, see the globe view (requires WebGL).

§ Visibility from observer

Set your observer location to see the next 7 days of passes ≥ 10°. The values pass through the URL so the page stays shareable.

No JS? Fill the form by hand. The geolocation button needs JavaScript.